When you browse on this site, cookies collect data to enhance your experience and personalize the content and advertising you see.
Visit our Privacy Policy to learn more. By continuing to use the site, you agree to this use of cookies and data.
  • In Sweden
  • List of Countries
  • For 7 days
  • Water Temperature
  • Satellite Maps
  • Weather Map
  • Weather Widgets
  • user-avatar
    Login

    Hourly Weather Bagart

    Today, 27 May, Monday

    Time Temperature Precipitation Wind Pressure Humidity
    00:00 +14°C° 0 mm 3 mps 748 mmHg 83%
    01:00 +13°C° 0 mm 3 mps 748 mmHg 83%
    02:00 +13°C° 0 mm 3 mps 748 mmHg 83%
    03:00 +13°C° 0 mm 4 mps 748 mmHg 82%
    04:00 +13°C° 0 mm 4 mps 747 mmHg 81%
    05:00 +15°C° 0 mm 4 mps 747 mmHg 79%
    06:00 +16°C° 0 mm 5 mps 747 mmHg 76%
    07:00 +17°C° 0 mm 5 mps 747 mmHg 73%
    08:00 +19°C° 0.1 mm 6 mps 747 mmHg 68%
    09:00 +21°C° 0.1 mm 6 mps 747 mmHg 63%
    10:00 +22°C° 0.1 mm 7 mps 747 mmHg 58%
    11:00 +22°C° 0.2 mm 6 mps 747 mmHg 59%
    12:00 +22°C° 0.2 mm 6 mps 747 mmHg 61%
    13:00 +22°C° 0.2 mm 6 mps 747 mmHg 62%
    14:00 +22°C° 0.5 mm 5 mps 747 mmHg 65%
    15:00 +21°C° 0.5 mm 4 mps 747 mmHg 68%
    16:00 +21°C° 0.5 mm 4 mps 747 mmHg 71%
    17:00 +20°C° 0.7 mm 3 mps 747 mmHg 76%
    18:00 +19°C° 0.7 mm 2 mps 747 mmHg 81%
    19:00 +19°C° 0.7 mm 1 mps 747 mmHg 86%
    20:00 +18°C° 0.1 mm 1 mps 747 mmHg 88%
    21:00 +16°C° 0.1 mm 2 mps 747 mmHg 91%
    22:00 +15°C° 0.1 mm 2 mps 747 mmHg 94%
    23:00 +15°C° 0 mm 2 mps 747 mmHg 94%

    Tomorrow, 28 May, Tuesday

    Time Temperature Precipitation Wind Pressure Humidity
    00:00 +15°C° 0 mm 2 mps 746 mmHg 94%
    01:00 +15°C° 0 mm 2 mps 746 mmHg 95%
    02:00 +15°C° 1.2 mm 2 mps 745 mmHg 96%
    03:00 +15°C° 1.2 mm 2 mps 745 mmHg 97%
    04:00 +15°C° 1.2 mm 1 mps 744 mmHg 98%
    05:00 +15°C° 2.3 mm 2 mps 744 mmHg 97%
    06:00 +15°C° 2.3 mm 2 mps 744 mmHg 97%
    07:00 +15°C° 2.3 mm 2 mps 744 mmHg 97%
    08:00 +14°C° 0.9 mm 3 mps 744 mmHg 97%
    09:00 +13°C° 0.9 mm 4 mps 744 mmHg 96%
    10:00 +13°C° 0.9 mm 4 mps 744 mmHg 95%
    11:00 +12°C° 0.8 mm 4 mps 745 mmHg 95%
    12:00 +11°C° 0.8 mm 4 mps 745 mmHg 94%
    13:00 +11°C° 0.8 mm 4 mps 745 mmHg 93%
    14:00 +11°C° 0.2 mm 4 mps 745 mmHg 92%
    15:00 +11°C° 0.2 mm 4 mps 746 mmHg 91%
    16:00 +11°C° 0.2 mm 4 mps 746 mmHg 90%
    17:00 +11°C° 0 mm 4 mps 746 mmHg 91%
    18:00 +11°C° 0 mm 3 mps 747 mmHg 91%
    19:00 +11°C° 0 mm 3 mps 747 mmHg 92%
    20:00 +11°C° 0 mm 3 mps 748 mmHg 92%
    21:00 +12°C° 0 mm 2 mps 748 mmHg 93%
    22:00 +10°C° 0 mm 2 mps 748 mmHg 93%
    23:00 +10°C° 0 mm 3 mps 749 mmHg 91%

    Day after tomorrow, 29 May, Wednesday

    Time Temperature Precipitation Wind Pressure Humidity
    00:00 +10°C° 0 mm 3 mps 749 mmHg 90%
    01:00 +10°C° 0 mm 4 mps 750 mmHg 88%
    02:00 +9°C° 0 mm 3 mps 750 mmHg 87%
    03:00 +9°C° 0 mm 3 mps 751 mmHg 85%
    04:00 +9°C° 0 mm 3 mps 751 mmHg 84%
    05:00 +9°C° 0 mm 3 mps 752 mmHg 80%
    06:00 +10°C° 0 mm 4 mps 752 mmHg 77%
    07:00 +11°C° 0 mm 4 mps 753 mmHg 73%
    08:00 +12°C° 0 mm 4 mps 753 mmHg 68%
    09:00 +13°C° 0 mm 4 mps 754 mmHg 62%
    10:00 +14°C° 0 mm 4 mps 754 mmHg 56%
    11:00 +15°C° 0 mm 4 mps 755 mmHg 54%
    12:00 +15°C° 0 mm 4 mps 755 mmHg 51%
    13:00 +17°C° 0 mm 4 mps 755 mmHg 48%
    14:00 +17°C° 0 mm 4 mps 756 mmHg 50%
    15:00 +17°C° 0 mm 4 mps 756 mmHg 51%
    16:00 +17°C° 0 mm 4 mps 756 mmHg 53%
    17:00 +14°C° 0 mm 3 mps 756 mmHg 59%
    18:00 +13°C° 0 mm 3 mps 756 mmHg 65%
    19:00 +12°C° 0 mm 3 mps 757 mmHg 71%
    20:00 +10°C° 0 mm 2 mps 757 mmHg 75%
    21:00 +8°C° 0 mm 2 mps 758 mmHg 79%
    22:00 +7°C° 0 mm 2 mps 758 mmHg 83%
    23:00 +6°C° 0 mm 2 mps 758 mmHg 84%

    30 May, Thursday

    Time Temperature Precipitation Wind Pressure Humidity
    00:00 +6°C° 0 mm 2 mps 758 mmHg 84%
    01:00 +6°C° 0 mm 1 mps 758 mmHg 84%
    02:00 +6°C° 0 mm 1 mps 758 mmHg 85%
    03:00 +6°C° 0 mm 1 mps 758 mmHg 85%
    04:00 +5°C° 0 mm 1 mps 758 mmHg 86%
    05:00 +7°C° 0 mm 1 mps 758 mmHg 78%
    06:00 +9°C° 0 mm 1 mps 758 mmHg 71%
    07:00 +11°C° 0 mm 1 mps 758 mmHg 63%
    08:00 +12°C° 0 mm 1 mps 758 mmHg 56%
    09:00 +14°C° 0 mm 1 mps 758 mmHg 50%
    10:00 +16°C° 0 mm 1 mps 758 mmHg 43%
    11:00 +17°C° 0 mm 2 mps 758 mmHg 42%
    12:00 +17°C° 0 mm 2 mps 758 mmHg 41%
    13:00 +18°C° 0 mm 2 mps 757 mmHg 40%
    14:00 +19°C° 0 mm 2 mps 757 mmHg 41%
    15:00 +19°C° 0 mm 2 mps 757 mmHg 43%
    16:00 +19°C° 0 mm 2 mps 757 mmHg 44%
    17:00 +18°C° 0 mm 2 mps 757 mmHg 51%
    18:00 +17°C° 0 mm 2 mps 757 mmHg 58%
    19:00 +16°C° 0 mm 2 mps 756 mmHg 65%
    20:00 +14°C° 0 mm 2 mps 757 mmHg 68%
    21:00 +13°C° 0 mm 2 mps 757 mmHg 70%
    22:00 +11°C° 0 mm 3 mps 757 mmHg 73%
    23:00 +11°C° 0 mm 3 mps 757 mmHg 75%

    31 May, Friday

    Time Temperature Precipitation Wind Pressure Humidity
    00:00 +10°C° 0 mm 3 mps 757 mmHg 76%
    01:00 +10°C° 0 mm 3 mps 757 mmHg 77%
    02:00 +10°C° 0 mm 2 mps 757 mmHg 79%
    03:00 +9°C° 0 mm 2 mps 757 mmHg 81%
    04:00 +9°C° 0 mm 2 mps 757 mmHg 83%
    05:00 +12°C° 0 mm 2 mps 757 mmHg 79%
    06:00 +13°C° 0 mm 1 mps 757 mmHg 76%
    07:00 +15°C° 0 mm 1 mps 758 mmHg 73%
    08:00 +16°C° 0 mm 1 mps 758 mmHg 73%
    09:00 +18°C° 0 mm 1 mps 758 mmHg 73%
    10:00 +17°C° 0 mm 2 mps 758 mmHg 73%
    11:00 +18°C° 0.1 mm 2 mps 758 mmHg 73%
    12:00 +18°C° 0.1 mm 2 mps 758 mmHg 74%
    13:00 +18°C° 0.1 mm 2 mps 758 mmHg 74%
    14:00 +18°C° 0 mm 2 mps 758 mmHg 71%
    15:00 +19°C° 0 mm 2 mps 758 mmHg 69%
    16:00 +19°C° 0 mm 2 mps 758 mmHg 67%
    17:00 +18°C° 0 mm 2 mps 758 mmHg 73%
    18:00 +17°C° 0 mm 2 mps 758 mmHg 79%
    19:00 +16°C° 0 mm 2 mps 758 mmHg 85%
    20:00 +16°C° 0 mm 3 mps 758 mmHg 86%
    21:00 +14°C° 0 mm 3 mps 759 mmHg 87%
    22:00 +13°C° 0 mm 3 mps 759 mmHg 88%
    23:00 +12°C° 0 mm 3 mps 759 mmHg 89%

    1 June, Saturday

    Time Temperature Precipitation Wind Pressure Humidity
    00:00 +12°C° 0 mm 3 mps 759 mmHg 89%
    01:00 +13°C° 0 mm 2 mps 759 mmHg 90%
    02:00 +12°C° 0 mm 2 mps 759 mmHg 91%
    03:00 +12°C° 0 mm 2 mps 759 mmHg 92%
    04:00 +12°C° 0 mm 2 mps 759 mmHg 93%
    05:00 +12°C° 0.1 mm 2 mps 760 mmHg 91%
    06:00 +12°C° 0.1 mm 2 mps 760 mmHg 90%
    07:00 +12°C° 0.1 mm 2 mps 760 mmHg 89%
    08:00 +13°C° 0 mm 2 mps 760 mmHg 84%
    09:00 +14°C° 0 mm 2 mps 760 mmHg 79%
    10:00 +16°C° 0 mm 2 mps 760 mmHg 74%
    11:00 +17°C° 0 mm 2 mps 760 mmHg 71%
    12:00 +18°C° 0 mm 2 mps 760 mmHg 67%
    13:00 +20°C° 0 mm 2 mps 760 mmHg 64%
    14:00 +20°C° 0 mm 2 mps 760 mmHg 65%
    15:00 +21°C° 0 mm 1 mps 759 mmHg 65%
    16:00 +21°C° 0 mm 1 mps 759 mmHg 65%
    17:00 +20°C° 0 mm 1 mps 759 mmHg 70%
    18:00 +19°C° 0 mm 1 mps 759 mmHg 74%
    19:00 +18°C° 0 mm 1 mps 759 mmHg 79%
    20:00 +16°C° 0 mm 1 mps 759 mmHg 83%
    21:00 +14°C° 0 mm 1 mps 759 mmHg 87%
    22:00 +13°C° 0 mm 1 mps 760 mmHg 91%
    23:00 +13°C° 0 mm 1 mps 759 mmHg 92%
    Show more